[[{"header":{"parameterUnit":"m.s-1","parameterCategory":2,"la1":30.2991,"la2":30.254,"lo1":-89.0895,"lo2":-89.0444,"dy":0.0017,"dx":0.0017,"nx":28,"ny":28,"refTime":"2025-04-25T03:00:00:Z","depth":"0","parameterNumber":2,"parameterNumberName":"U-component_of_CURRENTS"},"data":[0,0,0,0,0,0,0,0,0,0,0,0,0,0,0,0,0,0,0,0,0,0,0,0,0,0,0,0,0,0,0,0,0,0,0,0,0,0,0,0,0,0,0,0,0,0,0,0,0,0,0,0,0,0,0,0,0,0,0.2823,0.2823,0,0.2855,0.2855,0.2855,0.2877,0.2877,0.2878,0.2878,0.2882,0.2881,0.2881,0,0,0,0,0,0,0,0,0,0,0,0,0,0.2784,0.2784,0.2823,0.2824,0.2824,0.2855,0.2855,0.2855,0.2877,0.2877,0.2878,0.2878,0.2882,0.2881,0.2881,0,0,0,0,0,0,0,0,0,0,0,0,0,0.2804,0.2784,0.2823,0.2841,0.2843,0.2855,0.2855,0.2855,0.2876,0.2877,0.2878,0.2878,0.2882,0.2881,0.2881,0.2864,0,0,0.2879,0.2879,0,0,0,0,0,0,0,0,0.2803,0.2805,0.2838,0.284,0.2842,0.2866,0.2843,0.2858,0.2876,0.286,0.2878,0.2879,0.2875,0.2875,0.2875,0.2864,0.2864,0.2879,0.2879,0.2879,0.2879,0,0,0,0,0,0,0,0.2801,0.2804,0.2832,0.2838,0.2841,0.285,0.2853,0.2846,0.286,0.2862,0.2864,0.2873,0.2876,0.2876,0.2876,0.2865,0.2879,0.2879,0.2879,0.2878,0.2899,0.29,0,0,0,0,0,0,0.2803,0.2802,0.2831,0.2833,0.2828,0.285,0.2853,0.2855,0.2861,0.2864,0.2872,0.2874,0.2876,0.2876,0.2876,0.2932,0.2879,0.2878,0.2878,0.2898,0.29,0.29,0,0,0,0,0,0,0.2802,0.2805,0.283,0.2822,0.2826,0.285,0.2851,0.2855,0.2862,0.287,0.2872,0.2877,0.2877,0.2877,0.2889,0.2929,0.2878,0.2878,0.2897,0.2899,0.29,0.2995,0,0,0,0,0,0,0.2801,0.2804,0.2802,0.2822,0.2827,0.2852,0.2851,0.2855,0.2868,0.287,0.2874,0.2875,0.2877,0.289,0.2888,0.2928,0.2877,0.2896,0.2898,0.29,0.2991,0.2999,0.3007,0,0,0,0,0,0.2799,0.2799,0.2801,0.2805,0.2823,0.2853,0.2856,0.2873,0.2867,0.2879,0.2884,0.2876,0.2899,0.289,0.2888,0.2928,0.2896,0.2898,0.2899,0.2987,0.2998,0.3006,0,0,0,0,0,0,0.2774,0.2802,0.2805,0.2811,0.2836,0.2858,0.2868,0.2873,0.2883,0.2885,0.2882,0.2884,0.2914,0.2896,0.2885,0.2936,0.2897,0.2899,0.2965,0.2974,0.2982,0.3036,0.2877,0,0,0,0,0,0.2768,0.278,0.2807,0.2813,0.2826,0.2843,0.2853,0.2869,0.2884,0.2889,0.2893,0.2898,0.2917,0.2925,0.2932,0.295,0.2992,0.2974,0.2982,0.2989,0.303,0.3136,0.3159,0.2907,0.2907,0.2907,0,0,0.276,0.2777,0.2783,0.2809,0.2826,0.2868,0.2851,0.2877,0.2918,0.2886,0.2928,0.2924,0.2927,0.2964,0.2975,0.2956,0.3077,0.2991,0.2998,0.3036,0.3141,0.3166,0.3188,0.2908,0.2908,0.2908,0,0,0.2777,0.2766,0.2798,0.2824,0.2861,0.2878,0.2887,0.2916,0.2933,0.2965,0.2965,0.2991,0.2994,0.303,0.3042,0.3091,0.3116,0.3076,0.3166,0.3267,0.3291,0.3312,0.3383,0.341,0.3081,0.3082,0.3082,0,0.2772,0.2812,0.2811,0.2857,0.2889,0.2888,0.2942,0.2961,0.2991,0.3026,0.2992,0.3058,0.3041,0.3132,0.3148,0.3117,0.3169,0.3132,0.3284,0.3306,0.3326,0.3394,0.3422,0.3086,0.3086,0.3085,0.3085,0,0.2828,0.2861,0.288,0.2943,0.2972,0.3011,0.3048,0.308,0.3088,0.3119,0.3192,0.3183,0.3235,0.3222,0.32,0.333,0.3319,0.3285,0.3272,0.3358,0.3422,0.345,0.3093,0.3092,0.309,0.3089,0,0,0.2826,0.2908,0.2919,0.2961,0.3022,0.3052,0.3128,0.3207,0.3275,0.3292,0.3388,0.3411,0.3414,0.3428,0.3408,0.3481,0.3637,0.3449,0.3452,0.3542,0.3864,0.3769,0.3789,0.3643,0.3648,0.3653,0.3848,0,0.2879,0.2975,0.3009,0.3101,0.3149,0.3186,0.3259,0.3327,0.3374,0.3458,0.3483,0.3547,0.349,0.3515,0.3591,0.3623,0.3719,0.3587,0.3749,0.3754,0.3678,0.3821,0.3719,0.3879,0.3876,0.388,0.3884,0,0.2937,0.2992,0.3088,0.3189,0.3216,0.3269,0.3391,0.3462,0.3581,0.3621,0.3709,0.3721,0.3829,0.3749,0.3923,0.3847,0.3885,0.3904,0.3911,0.382,0.3713,0.3792,0.393,0.3841,0.3927,0.3923,0.392,0,0.2933,0.3051,0.3124,0.3156,0.3266,0.3322,0.339,0.3512,0.3589,0.3732,0.3794,0.3922,0.3974,0.4072,0.4094,0.4037,0.4275,0.4193,0.4157,0.4149,0.4094,0.4071,0.4188,0.4361,0.4361,0.436,0.436,0,0.2971,0.3028,0.3125,0.3156,0.3256,0.3334,0.3454,0.3546,0.3686,0.3777,0.3872,0.3963,0.4063,0.4175,0.4198,0.4275,0.4373,0.4232,0.4222,0.4115,0.4093,0.4033,0.3986,0.4368,0.4366,0.4365,0.4363,0,0.2942,0.3013,0.3094,0.321,0.3248,0.3317,0.3464,0.354,0.3692,0.3817,0.3863,0.4041,0.418,0.4268,0.4421,0.4392,0.4366,0.4473,0.4322,0.4289,0.4109,0.4069,0.4034,0.3912,0.4477,0.4477,0.4476,0,0.2933,0.2968,0.3096,0.3128,0.3172,0.3281,0.3339,0.3515,0.3593,0.3841,0.3882,0.4082,0.4182,0.4391,0.4416,0.45,0.4361,0.442,0.4281,0.4142,0.4094,0.3899,0.3784,0.425,0.4247,0.4245,0.4243,0,0.289,0.2934,0.2986,0.3062,0.3121,0.3207,0.3308,0.3379,0.357,0.3692,0.3861,0.3983,0.4195,0.4247,0.4357,0.4381,0.4218,0.4374,0.4309,0.4012,0.374,0.3599,0.4052,0.4226,0.4227,0.4229,0.423,0.423,0.2835,0.2856,0.2917,0.2983,0.3042,0.3098,0.3134,0.3242,0.3369,0.3517,0.3716,0.3838,0.4049,0.4191,0.4191,0.414,0.4074,0.404,0.4035,0.3872,0.3659,0.4046,0.4138,0.4139,0.414,0.4141,0.4142,0,0.2773,0.2793,0.2828,0.2901,0.2913,0.2991,0.3073,0.3081,0.3158,0.3328,0.3464,0.3645,0.3763,0.3897,0.3978,0.3853,0.3662,0.3759,0.3513,0.3436,0.3891,0.3783,0.3706,0.3706,0.3706,0.3707,0.3707,0.3707,0.2742,0.2744,0.2763,0.2757,0.2787,0.2774,0.2795,0.2821,0.2912,0.2992,0.3083,0.3229,0.3569,0.3823,0.3785,0.3685,0.3398,0.326,0.3205,0.3591,0.3616,0.364,0.3529,0.3401,0.34,0.2615,0.2609,0.2605]},{"header":{"parameterUnit":"m.s-1","parameterCategory":2,"la1":30.2991,"la2":30.254,"lo1":-89.0895,"lo2":-89.0444,"dy":0.0017,"dx":0.0017,"nx":28,"ny":28,"refTime":"2025-04-25T03:00:00:Z","depth":"0","parameterNumber":3,"parameterNumberName":"V-component_of_CURRENTS"},"data":[0,0,0,0,0,0,0,0,0,0,0,0,0,0,0,0,0,0,0,0,0,0,0,0,0,0,0,0,0,0,0,0,0,0,0,0,0,0,0,0,0,0,0,0,0,0,0,0,0,0,0,0,0,0,0,0,0,0,0.0451,0.045,0,0.0343,0.0342,0.034,0.0267,0.0267,0.0267,0.0267,0.0103,0.0098,0.0094,0,0,0,0,0,0,0,0,0,0,0,0,0,0.0455,0.0455,0.0451,0.045,0.0449,0.0343,0.0341,0.0339,0.0267,0.0267,0.0267,0.0267,0.0104,0.0099,0.0094,0,0,0,0,0,0,0,0,0,0,0,0,0,0.0406,0.0456,0.0451,0.0404,0.0399,0.0344,0.0341,0.0339,0.0267,0.0267,0.0267,0.0267,0.0106,0.0099,0.0093,0.0054,0,0,0.0073,0.007,0,0,0,0,0,0,0,0,0.0409,0.0405,0.0412,0.0407,0.0402,0.0323,0.0283,0.0243,0.0267,0.0312,0.0267,0.0267,0.0175,0.0162,0.0135,0.0046,0.0039,0.0072,0.0069,0.0066,0.0064,0,0,0,0,0,0,0,0.0413,0.0409,0.0403,0.0411,0.0405,0.0341,0.0335,0.0274,0.024,0.0308,0.0303,0.03,0.0171,0.0142,0.0131,0.0037,0.0073,0.0067,0.0063,0.006,-0.0115,-0.0115,0,0,0,0,0,0,0.0444,0.0413,0.0407,0.04,0.0411,0.0342,0.0335,0.0344,0.0241,0.0228,0.03,0.0297,0.0153,0.0139,0.0125,0.0075,0.0066,0.006,0.0056,-0.0114,-0.0115,-0.0116,0,0,0,0,0,0,0.0445,0.0445,0.0411,0.0407,0.0399,0.0344,0.0354,0.0342,0.0315,0.0237,0.0221,0.0286,0.0152,0.0134,0.0073,0.0068,0.0057,0.0051,-0.0113,-0.0114,-0.0115,-0.0027,0,0,0,0,0,0,0.0446,0.0446,0.0452,0.041,0.0401,0.0381,0.0354,0.034,0.0316,0.031,0.022,0.0204,0.0151,0.0083,0.0066,0.0059,0.0046,-0.0112,-0.0114,-0.0115,-0.0029,-0.0025,-0.0021,0,0,0,0,0,0.0446,0.0454,0.0453,0.0451,0.0415,0.0381,0.0369,0.0325,0.0316,0.03,0.0244,0.0207,0.0062,0.0077,0.0058,0.0048,-0.0111,-0.0113,-0.0115,-0.003,-0.0026,-0.0021,0,0,0,0,0,0,0.0452,0.0447,0.0444,0.0449,0.0423,0.0371,0.0353,0.0331,0.0274,0.0271,0.0199,0.0178,0.0124,0.007,0.0089,-0.0009,-0.0032,-0.0037,0.0039,0.0043,0.0046,0.009,0.004,0,0,0,0,0,0.0462,0.0469,0.045,0.0452,0.0445,0.0403,0.0382,0.036,0.0312,0.0288,0.0229,0.0162,0.01,0.0062,0.0,-0.0054,-0.0079,-0.0076,-0.0072,-0.0068,-0.0048,-0.0099,-0.0097,-0.0121,-0.0121,-0.0121,0,0,0.0462,0.0463,0.0464,0.0454,0.043,0.0421,0.0388,0.0368,0.0357,0.0278,0.0238,0.0176,0.009,0.0033,0.0002,-0.0012,-0.0073,-0.007,-0.0066,-0.0047,-0.0101,-0.0098,-0.0095,-0.0122,-0.0122,-0.0122,0,0,0.0474,0.0474,0.0486,0.0472,0.0455,0.0431,0.0433,0.0392,0.0368,0.0327,0.0269,0.0213,0.0114,0.0057,0.0013,-0.0002,-0.0046,-0.0032,0.0016,-0.0035,-0.0032,-0.003,-0.004,-0.004,-0.0036,-0.0036,-0.0036,0,0.0474,0.0501,0.0478,0.0487,0.0483,0.0445,0.0454,0.042,0.0363,0.0354,0.0326,0.0204,0.0129,0.0068,0.0058,0.001,-0.0013,0.0011,-0.0026,-0.0025,-0.0025,-0.0035,-0.0036,-0.0032,-0.0033,-0.0033,-0.0033,0,0.0503,0.0517,0.0521,0.053,0.0511,0.0515,0.0482,0.0465,0.044,0.041,0.0359,0.0262,0.0197,0.0151,0.0096,0.0056,0.0043,-0.0006,-0.0025,-0.0016,-0.0029,-0.0031,-0.0026,-0.0028,-0.0029,-0.003,0,0,0.054,0.0544,0.055,0.0569,0.0545,0.0543,0.0526,0.0512,0.0528,0.0454,0.0459,0.0337,0.0303,0.0252,0.0174,0.0119,0.0097,0.0063,0.0059,0.0077,0.0017,-0.0002,-0.0007,0.004,0.0039,0.0039,0.0016,0,0.058,0.0621,0.06,0.063,0.0654,0.0614,0.0611,0.0587,0.056,0.0551,0.046,0.0424,0.0335,0.031,0.0243,0.0139,0.0091,0.011,-0.0014,-0.0017,-0.0017,-0.001,-0.0003,-0.0025,0.0013,0.0013,0.0012,0,0.0638,0.0661,0.0702,0.072,0.0726,0.0728,0.0742,0.0736,0.0703,0.0683,0.0631,0.0559,0.0479,0.0397,0.0247,0.0265,0.0155,0.0068,0.0064,0.0017,-0.0042,-0.0036,-0.0031,-0.0223,0.0008,0.0009,0.0009,0,0.072,0.074,0.0784,0.0788,0.079,0.0803,0.0806,0.0787,0.0816,0.0775,0.0789,0.0675,0.0643,0.0483,0.0306,0.0274,0.0151,0.008,-0.0036,-0.0037,-0.0068,-0.0071,-0.0244,-0.0028,-0.0028,-0.0028,-0.0028,0,0.0799,0.0836,0.0833,0.0863,0.0932,0.0893,0.0963,0.0951,0.0958,0.101,0.0875,0.0897,0.0661,0.0555,0.0365,0.0183,0.0197,-0.0008,-0.0048,-0.0037,-0.0037,-0.0238,-0.0355,-0.0029,-0.0029,-0.0028,-0.0028,0,0.0896,0.0888,0.0951,0.0966,0.098,0.1037,0.1089,0.1141,0.1122,0.1186,0.1178,0.1084,0.0938,0.0698,0.0462,0.0287,-0.0025,0.0013,0.0066,0.0032,-0.0273,-0.0384,-0.0588,-0.0682,-0.0114,-0.0115,-0.0115,0,0.0949,0.0993,0.1048,0.1092,0.1106,0.1177,0.1235,0.1241,0.1303,0.1313,0.1362,0.1239,0.1191,0.0856,0.0493,0.0171,-0.0041,-0.0025,-0.0108,-0.0274,-0.0429,-0.051,-0.0581,-0.0104,-0.0104,-0.0105,-0.0105,0,0.1053,0.1072,0.1122,0.1224,0.1291,0.1379,0.1456,0.1532,0.1544,0.1604,0.1667,0.1632,0.1286,0.097,0.0507,0.027,-0.0168,-0.0043,-0.0246,-0.0453,-0.0524,-0.0637,-0.0077,-0.0108,-0.0108,-0.0107,-0.0107,-0.0107,0.1123,0.1188,0.1248,0.1347,0.1436,0.1548,0.1636,0.1729,0.1858,0.1935,0.1907,0.189,0.1405,0.0771,0.0424,-0.0204,-0.0228,-0.0391,-0.0511,-0.0576,-0.0684,-0.0108,-0.0176,-0.0176,-0.0176,-0.0176,-0.0176,0,0.1181,0.1249,0.1356,0.1466,0.1579,0.1608,0.1756,0.185,0.2015,0.2103,0.2162,0.1918,0.1335,0.0718,-0.0131,-0.0573,-0.0741,-0.0817,-0.0944,-0.0996,-0.0505,-0.0522,-0.0632,-0.0632,-0.0632,-0.0631,-0.0631,-0.0631,0.1203,0.1304,0.1362,0.155,0.164,0.1785,0.1873,0.203,0.2133,0.2253,0.2247,0.2205,0.1747,0.0248,-0.0752,-0.0989,-0.1323,-0.14,-0.1557,-0.124,-0.121,-0.1181,-0.1225,-0.1481,-0.1482,-0.1984,-0.1989,-0.1993]}],[{"header":{"parameterUnit":"m.s-1","parameterCategory":2,"la1":30.2991,"la2":30.254,"lo1":-89.0895,"lo2":-89.0444,"dy":0.0017,"dx":0.0017,"nx":28,"ny":28,"refTime":"2025-04-25T03:00:00:Z","depth":"2","parameterNumber":2,"parameterNumberName":"U-component_of_CURRENTS"},"data":[0,0,0,0,0,0,0,0,0,0,0,0,0,0,0,0,0,0,0,0,0,0,0,0,0,0,0,0,0,0,0,0,0,0,0,0,0,0,0,0,0,0,0,0,0,0,0,0,0,0,0,0,0,0,0,0,0,0,0.2711,0.2711,0,0.2712,0.2712,0.2711,0.2721,0.2722,0.2723,0.2723,0.2797,0.2798,0.28,0,0,0,0,0,0,0,0,0,0,0,0,0,0.2643,0.2644,0.2711,0.2711,0.2712,0.2712,0.2712,0.2711,0.2721,0.2722,0.2723,0.2724,0.2797,0.2798,0.28,0,0,0,0,0,0,0,0,0,0,0,0,0,0.2656,0.2644,0.2711,0.2721,0.2722,0.2712,0.2712,0.2711,0.2721,0.2722,0.2723,0.2724,0.2796,0.2798,0.28,0.279,0,0,0.2806,0.2807,0,0,0,0,0,0,0,0,0.2655,0.2658,0.2719,0.272,0.2722,0.2722,0.2715,0.2743,0.2721,0.2716,0.2723,0.2725,0.2781,0.2785,0.2774,0.2793,0.2796,0.2806,0.2807,0.2808,0.2808,0,0,0,0,0,0,0,0.2654,0.2657,0.2706,0.2719,0.2721,0.27,0.2703,0.2719,0.274,0.2716,0.2718,0.2727,0.2782,0.2772,0.2776,0.2797,0.2806,0.2808,0.2809,0.2809,0.2961,0.2964,0,0,0,0,0,0,0.2668,0.2657,0.2706,0.2707,0.2696,0.2701,0.2704,0.2717,0.2738,0.2743,0.2726,0.2727,0.2768,0.2774,0.2779,0.2892,0.2808,0.281,0.2811,0.2958,0.2962,0.2965,0,0,0,0,0,0,0.2666,0.2672,0.2706,0.2685,0.2689,0.2702,0.2715,0.2716,0.2744,0.2745,0.2751,0.2757,0.2769,0.2776,0.2842,0.2891,0.2811,0.2812,0.2955,0.2959,0.2963,0.304,0,0,0,0,0,0,0.2664,0.2672,0.2692,0.2687,0.2691,0.2754,0.2715,0.2716,0.2747,0.275,0.2774,0.2779,0.277,0.284,0.2844,0.2892,0.2814,0.2951,0.2957,0.2962,0.3034,0.3046,0.3057,0,0,0,0,0,0.2662,0.2689,0.2693,0.27,0.2717,0.2757,0.2758,0.2765,0.2749,0.2787,0.2798,0.278,0.2877,0.2844,0.2848,0.2897,0.2948,0.2955,0.2961,0.3029,0.3044,0.3057,0,0,0,0,0,0,0.2665,0.2692,0.2697,0.273,0.2767,0.2762,0.2785,0.2787,0.2818,0.2824,0.2812,0.282,0.2903,0.2892,0.2855,0.2961,0.2912,0.292,0.2962,0.2976,0.2988,0.2961,0.2815,0,0,0,0,0,0.2676,0.2724,0.2735,0.278,0.2784,0.2788,0.2804,0.2821,0.2841,0.2855,0.2876,0.2896,0.2925,0.2945,0.2979,0.3025,0.3004,0.3064,0.3076,0.3085,0.307,0.3111,0.3123,0.2986,0.2986,0.2986,0,0,0.2694,0.272,0.2746,0.2788,0.2798,0.2811,0.2801,0.285,0.2881,0.2859,0.2921,0.2951,0.2952,0.3017,0.3051,0.3016,0.3113,0.3094,0.3101,0.308,0.3119,0.3131,0.3143,0.299,0.2989,0.2989,0,0,0.2753,0.2769,0.2816,0.2827,0.287,0.2871,0.2896,0.2923,0.2956,0.3012,0.3013,0.3067,0.3106,0.3121,0.3123,0.3217,0.3186,0.3247,0.3268,0.3309,0.332,0.3329,0.3307,0.3313,0.3238,0.3238,0.3238,0,0.2766,0.2812,0.2842,0.2862,0.2862,0.2897,0.2914,0.295,0.3014,0.3052,0.3052,0.3125,0.3142,0.3189,0.3225,0.3241,0.3242,0.3209,0.3321,0.333,0.3338,0.3313,0.3319,0.3243,0.3242,0.3242,0.3241,0,0.2821,0.2855,0.2876,0.2907,0.2929,0.2957,0.2987,0.3054,0.3087,0.3118,0.3212,0.3232,0.3277,0.3296,0.3279,0.3357,0.3332,0.3342,0.3277,0.3356,0.3325,0.333,0.3249,0.3247,0.3246,0.3245,0,0,0.2814,0.29,0.2896,0.2912,0.2939,0.2959,0.3029,0.3095,0.3141,0.3218,0.3258,0.3329,0.3368,0.3374,0.3389,0.3399,0.3457,0.3396,0.3396,0.3355,0.3514,0.3511,0.3514,0.35,0.3502,0.3504,0.3464,0,0.2829,0.2882,0.2919,0.2952,0.2955,0.2996,0.308,0.3156,0.3193,0.3257,0.3303,0.3364,0.3392,0.342,0.3454,0.3465,0.3477,0.3463,0.3457,0.3455,0.343,0.3524,0.3287,0.3235,0.3468,0.3469,0.3469,0,0.281,0.286,0.2901,0.2986,0.2994,0.3034,0.3107,0.3188,0.329,0.3339,0.3393,0.3422,0.3485,0.3476,0.3544,0.3544,0.3543,0.3522,0.3521,0.3489,0.3463,0.3199,0.3234,0.3477,0.3476,0.3476,0.3475,0,0.2736,0.2813,0.2858,0.286,0.2983,0.3035,0.3111,0.3218,0.3291,0.3372,0.3399,0.349,0.3539,0.3564,0.3592,0.3576,0.3617,0.359,0.3567,0.3563,0.3341,0.3317,0.3617,0.3617,0.3617,0.3617,0.3617,0,0.2679,0.2706,0.2837,0.2841,0.2926,0.3024,0.3102,0.3202,0.332,0.3374,0.3456,0.3484,0.3573,0.3609,0.3601,0.3627,0.3658,0.3576,0.3573,0.3363,0.3343,0.3536,0.3528,0.3615,0.3616,0.3616,0.3616,0,0.2582,0.2669,0.2719,0.2854,0.2888,0.2949,0.308,0.3136,0.3293,0.3332,0.337,0.3516,0.3587,0.363,0.3661,0.3658,0.3649,0.3641,0.3369,0.3337,0.3538,0.3534,0.3577,0.3577,0.3577,0.3577,0.3577,0,0.2537,0.2563,0.2676,0.2701,0.2758,0.2848,0.2917,0.3098,0.3129,0.3323,0.3326,0.3461,0.3504,0.3592,0.3609,0.3606,0.3652,0.3378,0.3315,0.3552,0.3544,0.354,0.3536,0.302,0.3016,0.3012,0.3009,0,0.2443,0.2502,0.2544,0.2596,0.2645,0.2688,0.2777,0.2811,0.3012,0.3087,0.3194,0.3262,0.3403,0.3348,0.3428,0.3387,0.3367,0.3305,0.3633,0.3105,0.3035,0.3026,0.3038,0.2976,0.2979,0.2982,0.2983,0.2985,0.2358,0.2374,0.2432,0.2459,0.251,0.2518,0.251,0.2594,0.2674,0.2784,0.2954,0.3008,0.3114,0.3126,0.3051,0.3024,0.3236,0.3086,0.3092,0.3104,0.3085,0.3025,0.2953,0.2956,0.2959,0.2961,0.2964,0,0.2237,0.2273,0.2281,0.2311,0.2289,0.2378,0.2405,0.2384,0.24,0.2555,0.2652,0.2537,0.2564,0.2654,0.258,0.2619,0.2544,0.2503,0.2368,0.2408,0.2441,0.2382,0.2066,0.2063,0.2059,0.2056,0,0,0.2194,0.2151,0.215,0.2071,0.21,0.2048,0.2041,0.2045,0.2115,0.2142,0.2197,0.2448,0.2596,0.2275,0.2275,0.2148,0.224,0.2072,0.2809,0.2691,0.2719,0.282,0.2782,0,0,0,0,0]},{"header":{"parameterUnit":"m.s-1","parameterCategory":2,"la1":30.2991,"la2":30.254,"lo1":-89.0895,"lo2":-89.0444,"dy":0.0017,"dx":0.0017,"nx":28,"ny":28,"refTime":"2025-04-25T03:00:00:Z","depth":"2","parameterNumber":3,"parameterNumberName":"V-component_of_CURRENTS"},"data":[0,0,0,0,0,0,0,0,0,0,0,0,0,0,0,0,0,0,0,0,0,0,0,0,0,0,0,0,0,0,0,0,0,0,0,0,0,0,0,0,0,0,0,0,0,0,0,0,0,0,0,0,0,0,0,0,0,0,-0.0176,-0.0176,0,-0.0213,-0.0214,-0.0214,-0.0272,-0.0273,-0.0274,-0.0275,-0.0386,-0.0388,-0.039,0,0,0,0,0,0,0,0,0,0,0,0,0,-0.0146,-0.0147,-0.0176,-0.0176,-0.0177,-0.0213,-0.0214,-0.0214,-0.0272,-0.0273,-0.0274,-0.0275,-0.0385,-0.0388,-0.039,0,0,0,0,0,0,0,0,0,0,0,0,0,-0.0169,-0.0147,-0.0176,-0.021,-0.0213,-0.0213,-0.0214,-0.0214,-0.0272,-0.0273,-0.0275,-0.0276,-0.0384,-0.0387,-0.039,-0.0379,0,0,-0.04,-0.0401,0,0,0,0,0,0,0,0,-0.0168,-0.017,-0.0204,-0.0207,-0.0211,-0.0239,-0.0244,-0.0273,-0.0271,-0.025,-0.0275,-0.0277,-0.0342,-0.0349,-0.0352,-0.0384,-0.0389,-0.04,-0.0402,-0.0403,-0.0404,0,0,0,0,0,0,0,-0.0166,-0.0169,-0.0191,-0.0204,-0.0209,-0.022,-0.0225,-0.0249,-0.0289,-0.0252,-0.0256,-0.0259,-0.0345,-0.0349,-0.0355,-0.039,-0.04,-0.0402,-0.0404,-0.0406,-0.0472,-0.0472,0,0,0,0,0,0,-0.016,-0.0167,-0.019,-0.0192,-0.0192,-0.0219,-0.0225,-0.0229,-0.0287,-0.0297,-0.0258,-0.0261,-0.0343,-0.0352,-0.0359,-0.0395,-0.0403,-0.0406,-0.0408,-0.0473,-0.0472,-0.0472,0,0,0,0,0,0,-0.0159,-0.0161,-0.0188,-0.018,-0.0185,-0.0218,-0.0222,-0.0229,-0.0252,-0.0291,-0.0302,-0.0276,-0.0344,-0.0355,-0.0397,-0.0399,-0.0407,-0.041,-0.0473,-0.0472,-0.0472,-0.0438,0,0,0,0,0,0,-0.0158,-0.0161,-0.0166,-0.018,-0.0185,-0.02,-0.0221,-0.0228,-0.025,-0.0256,-0.031,-0.032,-0.0346,-0.0392,-0.04,-0.0403,-0.0412,-0.0473,-0.0473,-0.0472,-0.0439,-0.0436,-0.0434,0,0,0,0,0,-0.0157,-0.0152,-0.0166,-0.0169,-0.0189,-0.02,-0.0204,-0.0233,-0.0249,-0.0259,-0.0297,-0.032,-0.0397,-0.0395,-0.0404,-0.0408,-0.0473,-0.0473,-0.0472,-0.044,-0.0437,-0.0434,0,0,0,0,0,0,-0.0141,-0.0157,-0.0173,-0.0175,-0.0193,-0.021,-0.0216,-0.0236,-0.027,-0.0282,-0.0322,-0.0335,-0.0376,-0.0393,-0.0389,-0.0426,-0.0437,-0.0439,-0.041,-0.0407,-0.0405,-0.0366,-0.0415,0,0,0,0,0,-0.0138,-0.0149,-0.0162,-0.0171,-0.0171,-0.0196,-0.0205,-0.0227,-0.0255,-0.0272,-0.0313,-0.0349,-0.0376,-0.0394,-0.0428,-0.0443,-0.0452,-0.0451,-0.0448,-0.0446,-0.0421,-0.0451,-0.0449,-0.0472,-0.0472,-0.0472,0,0,-0.0136,-0.0149,-0.0155,-0.0171,-0.0183,-0.0171,-0.0206,-0.0222,-0.0224,-0.0278,-0.0307,-0.0352,-0.0382,-0.0407,-0.0425,-0.0424,-0.0443,-0.0446,-0.0444,-0.0419,-0.0451,-0.0449,-0.0446,-0.0472,-0.0472,-0.0472,0,0,-0.0125,-0.0144,-0.014,-0.014,-0.0159,-0.0171,-0.0176,-0.0203,-0.0228,-0.0256,-0.0297,-0.0334,-0.0382,-0.0398,-0.0409,-0.0409,-0.0439,-0.0433,-0.0382,-0.0413,-0.0411,-0.0409,-0.0411,-0.041,-0.0422,-0.0422,-0.0422,0,-0.0117,-0.0109,-0.0142,-0.0123,-0.011,-0.0165,-0.0136,-0.0165,-0.0213,-0.0222,-0.0264,-0.0322,-0.0365,-0.0364,-0.0374,-0.0402,-0.0421,-0.0391,-0.0409,-0.0407,-0.0406,-0.0409,-0.0408,-0.042,-0.0421,-0.0421,-0.0421,0,-0.0083,-0.0076,-0.0069,-0.0062,-0.0061,-0.005,-0.0074,-0.0101,-0.0142,-0.0169,-0.0207,-0.0267,-0.0288,-0.0322,-0.035,-0.0359,-0.0375,-0.0412,-0.0412,-0.0401,-0.0405,-0.0405,-0.0418,-0.0419,-0.0419,-0.0419,0,0,-0.0039,-0.0043,-0.0032,-0.0011,-0.0017,-0.0005,-0.0013,-0.0019,-0.0001,-0.009,-0.0066,-0.0149,-0.0191,-0.0205,-0.0256,-0.029,-0.0313,-0.0346,-0.0349,-0.034,-0.0367,-0.0387,-0.0388,-0.0368,-0.0368,-0.0367,-0.0371,0,0.001,0.0059,0.0044,0.0097,0.0131,0.0099,0.0114,0.0092,0.0057,0.0054,-0.0028,-0.0036,-0.0143,-0.0143,-0.0203,-0.0277,-0.0312,-0.0307,-0.0384,-0.0385,-0.0399,-0.0389,-0.0359,-0.0361,-0.037,-0.037,-0.037,0,0.0078,0.01,0.0161,0.0199,0.0217,0.0236,0.0275,0.0286,0.0257,0.0232,0.0187,0.0119,0.0066,-0.0029,-0.0155,-0.0153,-0.0252,-0.0325,-0.0328,-0.0351,-0.0404,-0.0376,-0.036,-0.037,-0.037,-0.037,-0.037,0,0.0154,0.0197,0.0245,0.0264,0.0289,0.0314,0.034,0.034,0.0371,0.0362,0.0372,0.0278,0.0254,0.0106,-0.0079,-0.0112,-0.022,-0.0276,-0.0382,-0.0383,-0.0371,-0.0372,-0.0362,-0.0362,-0.0362,-0.0362,-0.0362,0,0.0235,0.0279,0.0285,0.0323,0.0396,0.0406,0.0483,0.0496,0.0533,0.0581,0.0479,0.0489,0.0278,0.0167,-0.0013,-0.0189,-0.0171,-0.0354,-0.0386,-0.0358,-0.0358,-0.0379,-0.0381,-0.0362,-0.0362,-0.0362,-0.0362,0,0.0305,0.0307,0.0364,0.0407,0.0427,0.049,0.0571,0.0636,0.0664,0.073,0.0735,0.0658,0.0526,0.0305,0.0096,-0.0078,-0.025,-0.0324,-0.0265,-0.029,-0.0403,-0.0403,-0.0411,-0.0412,-0.0412,-0.0413,-0.0413,0,0.0344,0.0377,0.0429,0.0472,0.0489,0.0571,0.0636,0.0693,0.0764,0.0822,0.0865,0.0776,0.0705,0.0411,0.0109,-0.0166,-0.0234,-0.0321,-0.0384,-0.0378,-0.0408,-0.0407,-0.0407,-0.0348,-0.0347,-0.0347,-0.0347,0,0.0418,0.0421,0.0467,0.0554,0.0618,0.0696,0.0795,0.0866,0.094,0.0998,0.1063,0.1028,0.0752,0.0488,0.0113,-0.0084,-0.0274,-0.0327,-0.0329,-0.0348,-0.0322,-0.035,-0.0351,-0.0346,-0.0346,-0.0346,-0.0346,-0.0346,0.0469,0.0508,0.0564,0.0647,0.0724,0.0826,0.0912,0.101,0.1132,0.1244,0.1203,0.1179,0.0871,0.0415,0.0076,-0.0267,-0.0264,-0.0388,-0.0387,-0.0386,-0.0387,-0.0364,-0.0394,-0.0394,-0.0395,-0.0395,-0.0395,0,0.0542,0.0586,0.0666,0.076,0.0855,0.0882,0.1026,0.1116,0.1259,0.1344,0.1392,0.1133,0.0831,0.048,-0.0026,-0.0337,-0.0368,-0.043,-0.0402,-0.04,-0.0399,-0.0401,-0.0412,-0.0413,-0.0414,-0.0415,0,0,0.0581,0.0667,0.0702,0.0857,0.0934,0.1069,0.1156,0.1284,0.1377,0.1469,0.1474,0.1408,0.0968,0.0603,0.0174,-0.0115,-0.0186,-0.0173,-0.0126,-0.004,-0.0035,-0.0341,-0.0337,0,0,0,0,0]}],[{"header":{"parameterUnit":"m.s-1","parameterCategory":2,"la1":30.2991,"la2":30.254,"lo1":-89.0895,"lo2":-89.0444,"dy":0.0017,"dx":0.0017,"nx":28,"ny":28,"refTime":"2025-04-25T03:00:00:Z","depth":"4","parameterNumber":2,"parameterNumberName":"U-component_of_CURRENTS"},"data":[0,0,0,0,0,0,0,0,0,0,0,0,0,0,0,0,0,0,0,0,0,0,0,0,0,0,0,0,0,0,0,0,0,0,0,0,0,0,0,0,0,0,0,0,0,0,0,0,0,0,0,0,0,0,0,0,0,0,0.1382,0.1382,0,0.1448,0.1449,0.145,0.1529,0.153,0.1531,0.1532,0.161,0.1611,0.1612,0,0,0,0,0,0,0,0,0,0,0,0,0,0.1311,0.1312,0.1381,0.1382,0.1383,0.1448,0.1449,0.145,0.1529,0.153,0.1531,0.1533,0.161,0.1611,0.1612,0,0,0,0,0,0,0,0,0,0,0,0,0,0.1356,0.1312,0.1381,0.143,0.1435,0.1448,0.1449,0.145,0.1528,0.153,0.1532,0.1533,0.1609,0.1611,0.1612,0.1586,0,0,0.1616,0.1617,0,0,0,0,0,0,0,0,0.1354,0.1359,0.1422,0.1426,0.1432,0.1482,0.1453,0.1496,0.1528,0.1493,0.1532,0.1534,0.1566,0.1571,0.1581,0.159,0.1593,0.1617,0.1618,0.1618,0.1619,0,0,0,0,0,0,0,0.1351,0.1357,0.1408,0.1423,0.1429,0.1444,0.1453,0.1461,0.152,0.1496,0.1502,0.1508,0.157,0.1579,0.1583,0.1594,0.1617,0.1618,0.1619,0.1619,0.1733,0.1735,0,0,0,0,0,0,0.134,0.1353,0.1406,0.141,0.1396,0.1444,0.1454,0.1464,0.152,0.1529,0.1507,0.1512,0.1576,0.1581,0.1586,0.1669,0.1618,0.162,0.162,0.1731,0.1734,0.1736,0,0,0,0,0,0,0.1338,0.1344,0.1404,0.1383,0.1392,0.1444,0.1455,0.1465,0.1508,0.1527,0.1538,0.1544,0.1577,0.1584,0.1639,0.1668,0.162,0.1622,0.1729,0.1732,0.1735,0.1763,0,0,0,0,0,0,0.1336,0.1343,0.1362,0.1382,0.1392,0.1435,0.1453,0.1465,0.1507,0.1515,0.1561,0.1569,0.1579,0.1637,0.164,0.1669,0.1623,0.1726,0.173,0.1734,0.176,0.1767,0.1773,0,0,0,0,0,0.1333,0.1351,0.1362,0.137,0.1412,0.1436,0.1444,0.1486,0.1507,0.153,0.1574,0.1569,0.1665,0.1639,0.1643,0.1673,0.1724,0.1729,0.1734,0.1756,0.1766,0.1773,0,0,0,0,0,0,0.1335,0.1361,0.1374,0.1401,0.1426,0.145,0.1482,0.1498,0.1549,0.1571,0.1588,0.1598,0.1658,0.1665,0.1636,0.1723,0.1697,0.1702,0.1713,0.1721,0.1728,0.1733,0.1624,0,0,0,0,0,0.1339,0.1361,0.1383,0.1408,0.1426,0.1456,0.1477,0.1502,0.1539,0.1565,0.1591,0.1633,0.1672,0.1698,0.1727,0.1765,0.1782,0.1793,0.18,0.1805,0.1815,0.1862,0.1874,0.1752,0.1752,0.1752,0,0,0.1344,0.1363,0.1377,0.141,0.1439,0.1467,0.1476,0.1519,0.1551,0.1562,0.1626,0.1653,0.1689,0.1743,0.177,0.1757,0.1853,0.1811,0.1815,0.1823,0.1869,0.188,0.189,0.1755,0.1755,0.1754,0,0,0.1359,0.1389,0.1412,0.1436,0.1479,0.1497,0.1513,0.155,0.1586,0.1639,0.1662,0.1712,0.1764,0.1795,0.1819,0.188,0.1885,0.1894,0.1933,0.1979,0.1988,0.1997,0.2043,0.2056,0.19,0.19,0.19,0,0.137,0.1399,0.1423,0.1451,0.1479,0.1513,0.1544,0.1578,0.1627,0.1661,0.1674,0.1772,0.1792,0.1861,0.189,0.1893,0.1923,0.1892,0.1986,0.1995,0.2003,0.2048,0.2062,0.1902,0.1902,0.1901,0.1901,0,0.1391,0.1428,0.1449,0.1495,0.1524,0.1562,0.1602,0.1645,0.1691,0.1721,0.1806,0.1841,0.1904,0.1916,0.1925,0.1998,0.2001,0.1983,0.1957,0.2017,0.2061,0.2075,0.1905,0.1904,0.1903,0.1903,0,0,0.1382,0.145,0.1462,0.1492,0.1555,0.1577,0.1643,0.1705,0.176,0.1816,0.189,0.1953,0.1977,0.2006,0.2019,0.2056,0.2137,0.2051,0.2053,0.2085,0.2251,0.2138,0.2141,0.2136,0.2138,0.214,0.226,0,0.1399,0.145,0.1485,0.1545,0.1577,0.1633,0.1687,0.1749,0.1815,0.1892,0.195,0.2026,0.2011,0.2055,0.209,0.2131,0.2174,0.2107,0.22,0.2203,0.2083,0.2153,0.2148,0.227,0.2273,0.2275,0.2277,0,0.1405,0.1441,0.1499,0.1575,0.1597,0.1643,0.1743,0.1797,0.1907,0.1962,0.2046,0.2096,0.2181,0.2153,0.2256,0.2219,0.2244,0.2262,0.2267,0.216,0.2114,0.2198,0.2301,0.2299,0.2298,0.2296,0.2294,0,0.1371,0.1451,0.15,0.1525,0.1614,0.1667,0.1726,0.1827,0.1889,0.202,0.209,0.2183,0.2262,0.2304,0.236,0.2322,0.2466,0.2413,0.2335,0.2328,0.2379,0.2368,0.2483,0.2483,0.2482,0.2482,0.2482,0,0.136,0.1402,0.1496,0.152,0.1592,0.166,0.1756,0.1826,0.1946,0.2023,0.2129,0.2207,0.2306,0.2398,0.2411,0.2429,0.2515,0.236,0.2354,0.239,0.238,0.2389,0.2376,0.2486,0.2485,0.2485,0.2484,0,0.1311,0.1373,0.1433,0.1538,0.1578,0.1631,0.1766,0.1825,0.1951,0.2062,0.2115,0.2267,0.2378,0.2466,0.256,0.2494,0.2519,0.2503,0.2571,0.2565,0.2336,0.2324,0.2413,0.241,0.2407,0.2405,0.2403,0,0.1284,0.1313,0.1432,0.147,0.1527,0.1622,0.1682,0.1813,0.1873,0.2075,0.2113,0.2292,0.2376,0.2431,0.2515,0.2559,0.2522,0.2521,0.2384,0.2345,0.2331,0.2323,0.2315,0.2399,0.2399,0.2398,0.2397,0,0.1232,0.1292,0.134,0.1423,0.1494,0.156,0.1658,0.1694,0.1845,0.1983,0.2074,0.2153,0.2285,0.2356,0.243,0.244,0.2507,0.2493,0.2496,0.2368,0.233,0.2317,0.2312,0.2389,0.239,0.2391,0.2391,0,0.1197,0.1216,0.1293,0.1355,0.1435,0.1469,0.1536,0.1611,0.169,0.1896,0.1929,0.2112,0.2261,0.2298,0.2358,0.2379,0.2319,0.222,0.2235,0.2246,0.2135,0.2059,0.2046,0,0,0,0,0,0.1152,0.1162,0.1214,0.1268,0.1343,0.1389,0.1501,0.1568,0.172,0.1737,0.1824,0.1933,0.2038,0.2134,0.2121,0.2284,0.2328,0.2258,0.222,0.2341,0.2351,0.2235,0,0,0,0,0,0,0.1117,0.1161,0.1181,0.1184,0.1202,0.1268,0.1333,0.1435,0.1449,0.1616,0.1685,0.1816,0.1947,0.2026,0.2082,0.2112,0.2049,0.2371,0.2367,0.2335,0.2344,0.2352,0.2237,0,0,0,0,0]},{"header":{"parameterUnit":"m.s-1","parameterCategory":2,"la1":30.2991,"la2":30.254,"lo1":-89.0895,"lo2":-89.0444,"dy":0.0017,"dx":0.0017,"nx":28,"ny":28,"refTime":"2025-04-25T03:00:00:Z","depth":"4","parameterNumber":3,"parameterNumberName":"V-component_of_CURRENTS"},"data":[0,0,0,0,0,0,0,0,0,0,0,0,0,0,0,0,0,0,0,0,0,0,0,0,0,0,0,0,0,0,0,0,0,0,0,0,0,0,0,0,0,0,0,0,0,0,0,0,0,0,0,0,0,0,0,0,0,0,0.0094,0.0094,0,0.0064,0.0064,0.0063,0.0029,0.0029,0.0028,0.0028,-0.0012,-0.0012,-0.0013,0,0,0,0,0,0,0,0,0,0,0,0,0,0.0103,0.0103,0.0094,0.0094,0.0094,0.0064,0.0064,0.0063,0.0029,0.0029,0.0028,0.0028,-0.0012,-0.0012,-0.0013,0,0,0,0,0,0,0,0,0,0,0,0,0,0.0088,0.0103,0.0094,0.0074,0.0072,0.0064,0.0064,0.0063,0.0029,0.0029,0.0028,0.0028,-0.0011,-0.0012,-0.0013,-0.0007,0,0,-0.0016,-0.0017,0,0,0,0,0,0,0,0,0.0089,0.0088,0.0077,0.0075,0.0073,0.0051,0.0052,0.0039,0.003,0.0044,0.0028,0.0027,0.0009,0.0007,0.0001,-0.0009,-0.0011,-0.0016,-0.0017,-0.0018,-0.0018,0,0,0,0,0,0,0,0.009,0.0089,0.0081,0.0077,0.0074,0.006,0.0057,0.005,0.003,0.0043,0.0041,0.0039,0.0008,0.0002,-0.0,-0.0011,-0.0016,-0.0017,-0.0018,-0.0018,-0.003,-0.003,0,0,0,0,0,0,0.0098,0.009,0.0082,0.008,0.0081,0.0061,0.0057,0.0058,0.003,0.0025,0.004,0.0038,0.0004,0.0001,-0.0002,0.0002,-0.0018,-0.0019,-0.0019,-0.003,-0.003,-0.003,0,0,0,0,0,0,0.0098,0.0097,0.0083,0.0085,0.0082,0.0061,0.0062,0.0057,0.005,0.0028,0.0023,0.0037,0.0003,-0.0,-0.0005,0.0,-0.0019,-0.002,-0.0031,-0.003,-0.003,0.001,0,0,0,0,0,0,0.0099,0.0098,0.01,0.0086,0.0083,0.0084,0.0062,0.0057,0.0051,0.0048,0.0024,0.002,0.0003,-0.0003,-0.0006,-0.0002,-0.0021,-0.0031,-0.0031,-0.003,0.0009,0.0012,0.0015,0,0,0,0,0,0.0099,0.0111,0.01,0.0099,0.0087,0.0084,0.0081,0.0063,0.0051,0.0053,0.0037,0.002,-0.0002,-0.0003,-0.0007,-0.0003,-0.0031,-0.0031,-0.003,0.0007,0.0012,0.0015,0,0,0,0,0,0,0.0119,0.0108,0.0096,0.0104,0.0095,0.0079,0.008,0.0067,0.0056,0.0053,0.0028,0.0023,0.0019,0.0005,0.0004,-0.0005,-0.0021,-0.0021,0.0009,0.0012,0.0016,0.0018,-0.0022,0,0,0,0,0,0.0124,0.0128,0.0114,0.0121,0.0116,0.0098,0.0094,0.0084,0.0072,0.0066,0.0048,0.0031,0.002,0.0014,0.0001,0.0002,-0.0031,0.0,0.0004,0.0007,0.0006,-0.0037,-0.0037,-0.0028,-0.0028,-0.0028,0,0,0.0134,0.0129,0.0131,0.0125,0.0115,0.0118,0.0094,0.0094,0.0097,0.0065,0.0063,0.0043,0.0022,0.0019,0.0016,0.0008,-0.0015,0.0007,0.001,0.0008,-0.0036,-0.0037,-0.0038,-0.0027,-0.0027,-0.0027,0,0,0.016,0.0151,0.0161,0.0156,0.0148,0.0138,0.014,0.0124,0.0115,0.0113,0.0089,0.0072,0.0057,0.004,0.003,0.0045,0.0004,0.0042,0.0061,0.002,0.0019,0.0017,-0.0031,-0.0037,0.0044,0.0044,0.0044,0,0.0171,0.0181,0.0164,0.0172,0.0173,0.015,0.0161,0.0152,0.0137,0.0132,0.0118,0.0084,0.0065,0.0056,0.0059,0.0051,0.0019,0.0049,0.0024,0.0021,0.0019,-0.003,-0.0037,0.0046,0.0046,0.0045,0.0045,0,0.02,0.0207,0.0215,0.0215,0.0215,0.0224,0.0209,0.0206,0.019,0.0174,0.0157,0.0126,0.0103,0.0095,0.0082,0.0062,0.004,0.0032,0.0014,0.002,-0.0031,-0.004,0.0049,0.0048,0.0047,0.0047,0,0,0.0222,0.0233,0.0234,0.0243,0.0239,0.0245,0.025,0.0246,0.0247,0.0218,0.021,0.018,0.0152,0.0138,0.0113,0.0078,0.0032,0.0052,0.0049,0.0005,-0.0066,-0.0056,-0.0064,0.0019,0.0018,0.0017,-0.0098,0,0.0247,0.0276,0.0272,0.03,0.0312,0.0298,0.0308,0.0301,0.0281,0.0267,0.0222,0.0206,0.0172,0.0162,0.0119,0.0059,0.0013,0.0063,-0.0066,-0.007,-0.0061,-0.0072,0.0014,-0.0104,-0.0106,-0.0107,-0.0109,0,0.027,0.0288,0.0322,0.0345,0.0349,0.0362,0.0369,0.0375,0.0349,0.0333,0.0296,0.0257,0.0205,0.0175,0.0056,0.009,0.0013,-0.0042,-0.0048,-0.0057,-0.0074,-0.0112,-0.0124,-0.0123,-0.0122,-0.0121,-0.012,0,0.0292,0.0321,0.0352,0.0359,0.038,0.0394,0.0404,0.0393,0.0406,0.037,0.0368,0.029,0.0261,0.0154,0.0041,0.0043,-0.0095,-0.0109,-0.0178,-0.0179,-0.0173,-0.017,-0.0204,-0.0204,-0.0203,-0.0203,-0.0203,0,0.0315,0.0338,0.0367,0.0382,0.0426,0.0426,0.0461,0.0456,0.0456,0.0472,0.0403,0.0394,0.0255,0.0164,0.0047,-0.0088,-0.0098,-0.0181,-0.0206,-0.0153,-0.0147,-0.0179,-0.0175,-0.0207,-0.0206,-0.0206,-0.0205,0,0.0328,0.0346,0.0386,0.042,0.0438,0.0466,0.0513,0.0537,0.0527,0.0544,0.0538,0.0466,0.0351,0.0203,0.0031,-0.0066,-0.0204,-0.0251,-0.0187,-0.0206,-0.0268,-0.026,-0.0351,-0.0351,-0.0352,-0.0352,-0.0352,0,0.0337,0.0359,0.0418,0.045,0.0468,0.0516,0.0555,0.0572,0.0599,0.0591,0.0602,0.0508,0.044,0.0208,0.0045,-0.0189,-0.0217,-0.0303,-0.0287,-0.0267,-0.0283,-0.0275,-0.0266,-0.0353,-0.0353,-0.0353,-0.0353,0,0.0352,0.0375,0.0411,0.0483,0.0532,0.0592,0.0643,0.0673,0.0692,0.0684,0.0659,0.054,0.0413,0.0227,0.0049,-0.0118,-0.0255,-0.0308,-0.0309,-0.0295,-0.0272,-0.0285,-0.0276,-0.0355,-0.0355,-0.0355,-0.0355,0,0.0368,0.0396,0.045,0.0514,0.0582,0.0648,0.0674,0.0711,0.0739,0.0727,0.0718,0.0578,0.0496,0.0263,0.0099,-0.0063,-0.011,-0.0172,-0.0181,-0.0181,-0.0093,-0.0036,-0.0073,0,0,0,0,0,0.0383,0.0419,0.0477,0.0549,0.0619,0.0661,0.0729,0.0749,0.0768,0.0763,0.0743,0.0626,0.0395,0.0301,0.0141,0.0073,-0.015,-0.0122,-0.0229,-0.0364,-0.0362,-0.0286,0,0,0,0,0,0,0.0391,0.0447,0.0477,0.057,0.0625,0.0705,0.0753,0.0766,0.0764,0.0758,0.0648,0.0578,0.0362,0.0491,0.0138,0.0088,-0.0005,-0.0231,-0.0235,-0.0365,-0.0363,-0.0362,-0.0283,0,0,0,0,0]}]]